This demonstration page uses our WeatherBlox Daily Observations layout. Learn more.

Left ArrowRight Arrow

38.83388, -104.82136

Hourly Observations for March 14, 2018

Temp ( °F °C ) Dew Point ( °F °C ) Humidity (%) Winds ( mph kmh ) Pressure ( in mb ) Visibility ( mi km ) Precip ( " mm )
12:58 am 00:58 Mostly Cloudy 35 1.8 23 -5 61 61 NNW 6 9 29.83 1010 10 16 0.00 0.00
1:58 am 01:58 Mostly Cloudy 35 1.8 23 -5.2 60 60 N 6 9 29.80 1009 10 16 0.00 0.00
2:58 am 02:58 Cloudy 34 1.3 23 -5.1 63 63 Calm 29.79 1009 10 16 0.00 0.00
3:58 am 03:58 Mostly Clear 33 0.7 23 -5.1 66 66 N 3 6 29.77 1008 10 16 0.00 0.00
4:58 am 04:58 Mostly Clear 33 0.5 23 -5.2 66 66 Calm 29.76 1008 10 16 0.00 0.00
5:58 am 05:58 Clear 38 3.6 18 -7.6 44 44 NNW 3 6 29.73 1007 10 16 0.00 0.00
6:58 am 06:58 Clear 41 5.2 17 -8.6 37 37 Calm 29.72 1006 10 16 0.00 0.00
7:58 am 07:58 Sunny 46 7.8 17 -8.5 31 31 Calm 29.70 1006 10 16 0.00 0.00
8:58 am 08:58 Sunny 47 8.5 20 -6.5 34 34 Calm 29.68 1005 10 16 0.00 0.00
9:58 am 09:58 Sunny 49 9.3 20 -6.4 33 33 Calm 29.70 1006 10 16 0.00 0.00
10:58 am 10:58 Sunny 52 10.9 19 -7.5 27 27 Calm 29.67 1005 10 16 0.00 0.00
11:58 am 11:58 Sunny 54 12.3 19 -7.5 25 25 Calm 29.66 1004 10 16 0.00 0.00
12:58 pm 12:58 Partly Cloudy 56 13.6 19 -7.2 23 23 SE 3 6 29.61 1003 10 16 0.00 0.00
1:58 pm 13:58 Sunny 59 14.9 19 -7.4 21 21 E 6 9 29.57 1001 10 16 0.00 0.00
2:58 pm 14:58 Sunny 60 15.6 19 -7.4 20 20 ESE 7 11 29.52 1000 10 16 0.00 0.00
3:58 pm 15:58 Mostly Cloudy 58 14.6 18 -7.7 21 21 ESE 14 22 29.50 999 10 16 0.00 0.00
4:32 pm 16:32 Mostly Cloudy 59 15 18 -8 20 20 SSE 17 28 29.49 999 10 16 0.00 0.00
4:58 pm 16:58 Mostly Cloudy 58 14.6 17 -8.1 20 20 SSE 20 31 29.48 998 10 16 0.00 0.00
5:58 pm 17:58 Sunny 57 13.9 17 -8.3 21 21 S 10 17 29.46 998 10 16 0.00 0.00
6:58 pm 18:58 Sunny 55 12.6 19 -7.3 24 24 S 10 17 29.46 998 10 16 0.00 0.00
7:58 pm 19:58 Clear 53 11.9 20 -6.8 27 27 S 12 19 29.45 997 10 16 0.00 0.00
8:58 pm 20:58 Clear 52 11.2 20 -6.7 28 28 S 8 13 29.44 997 10 16 0.00 0.00
9:58 pm 21:58 Clear 51 10.6 19 -7 29 29 S 13 20 29.44 997 10 16 0.00 0.00
10:58 pm 22:58 Clear 50 9.8 18 -7.6 29 29 S 10 17 29.39 995 10 16 0.00 0.00
11:58 pm 23:58 Clear 49 9.4 18 -7.7 29 29 SW 6 9 29.36 994 10 16 0.00 0.00

Powered by AerisWeather